Regional Weather Roundup
Issued by NWS

Home | Current Version | Previous Version | Text Only | Print | Product List | Glossary Off
Versions: 1 2 3 4 5 6 7 8 9 10 11 12 13 14 15 16 17 18 19 20 21 22 23 24 25 26 27 28 29 30 31 32 33 34 35 36 37 38 39 40 41 42 43 44 45 46 47 48 49 50

000
ASUS45 KBOU 120810
RWRCO

WEATHER ROUNDUP FOR COLORADO
NATIONAL WEATHER SERVICE DENVER/BOULDER CO
200 AM MDT SAT JUL 12 2014

NOTE: "FAIR" INDICATES FEW OR NO CLOUDS BELOW 12000 FEET WITH NO
SIGNIFICANT WEATHER AND/OR OBSTRUCTIONS TO VISIBILITY.

COZ001>005-013-030-031-120900-
...NORTHWEST COLORADO...

CITY           SKY/WX    TMP DP  RH WIND       PRES   REMARKS
CRAIG          CLOUDY    60  57  89 NE8       30.29R
HAYDEN         MOCLDY    61  52  72 NE6       30.31R
MEEKER         MOCLDY    65  54  67 NW5       30.28R
MOUNT WERNER   NOT AVBL
STEAMBOAT SPGS MOCLDY    58  54  87 NE5       30.33R
WALDEN         MOCLDY    54  52  94 CALM      30.43F
$$

COZ006>008-011-120900-
...WEST CENTRAL VALLEYS...

CITY           SKY/WX    TMP DP  RH WIND       PRES   REMARKS
GRAND JUNCTION PTCLDY    74  52  46 E9        30.12R
MONTROSE       MOCLDY    71  52  50 SE13      30.23R
EAGLE          CLOUDY    61  59  94 S5        30.36R
RIFLE          PTCLDY    63  59  87 CALM      30.22R
DELTA          MOCLDY    69  60  72 N3        30.18R
NUCLA          MOCLDY    73  45  35 N7        30.26R
$$

COZ017>023-064>068-120900-
...SOUTHWEST COLORADO...

CITY           SKY/WX    TMP DP  RH WIND       PRES   REMARKS
DURANGO        CLOUDY    60  57  89 N7        30.35F
CORTEZ         PTCLDY    68  55  63 CALM      30.27R
PAGOSA SPRINGS CLOUDY    58  56  92 CALM      30.42F
TELLURIDE      CLOUDY    61  48  63 E6        30.49F
WOLF CREEK PAS NOT AVBL
$$

COZ009-010-012-014-032>034-037-058>063-120900-
...CENTRAL COLORADO...

CITY           SKY/WX    TMP DP  RH WIND       PRES   REMARKS
ASPEN          CLOUDY    59  52  77 SE8       30.41F
BUENA VISTA    MOCLDY    57  48  73 NW10      30.40S
COPPER MTN     CLOUDY    52  43  71 W18       30.70F
BERTHOUD PASS  CLOUDY    45  32  61 NW6       30.74S
COTTONWOOD PAS MOCLDY    61  43  51 W3        30.54S
GUNNISON       MOCLDY    55  52  88 CALM      30.43S
KREMMLING      LGT RAIN  55  52  88 CALM      30.41F
LEADVILLE      CLOUDY    48  46  93 CALM      30.54S
MONARCH PASS   CLOUDY    48  41  76 SW17      30.79S
SALIDA         MOCLDY   N/A N/A N/A NW6       30.44S
SUNLIGHT       CLOUDY    50  48  93 CALM      30.60F
WILKERSON PASS MOCLDY    50  41  71 S3        30.67S
$$

COZ069>075-120900-
...SAN LUIS VALLEY/SANGRE DE CRISTO MOUNTAINS...

CITY           SKY/WX    TMP DP  RH WIND       PRES   REMARKS
ALAMOSA        MOCLDY    55  49  80 E5        30.36S
LA VETA PASS   PTCLDY    52  41  66 SW5       30.54S
SAGUACHE       NOT AVBL
$$

COZ035-036-038>040-120900-
...NORTHERN COLORADO FRONT RANGE...

CITY           SKY/WX    TMP DP  RH WIND       PRES   REMARKS
DENVER INTL AP CLOUDY    65  61  87 NW9       30.24F
DMNS CITY PARK   N/A     65  60  84 NW3       30.24F
AURORA         NOT AVBL
FRONT RANGE AP NOT AVBL
ERIE MUNI ARPT MOCLDY    65  62  89 CALM      30.23F
BOULDER MUN AP MOCLDY    66  61  82 CALM      30.24S
CENTENNIAL     PTCLDY    64  60  87 NW8       30.27F
BROOMFIELD     MOCLDY    64  59  82 N5        30.26F
FORT COLLINS   MOCLDY    64  61  88 CALM      30.22F
LONGMONT       MOCLDY    68  62  83 CALM      30.24F
$$

COZ041-046-047-076>085-087-088-120900-
...PIKES PEAK/PALMER DIVIDE AND SOUTHERN FOOTHILLS...

CITY           SKY/WX    TMP DP  RH WIND       PRES   REMARKS
COLO. SPRINGS  MOCLDY    66  55  67 NW9       30.26F
A. F. ACADEMY  MOCLDY    62  58  88 N6        30.29F
ELLICOTT       MOCLDY    63  60  90 N6        30.24S
FALCON         MOCLDY    62  55  77 NW6       30.31F
FORT CARSON    CLOUDY    64  56  74 N8        30.23F
LIMON          CLOUDY    64  59  83 NW8       30.20S
MONUMENT HILL  RAIN      57  54  88 NW7       30.33S
TRINIDAD       CLEAR     64  54  69 W7        30.21F
$$

COZ042>045-048>051-090-091-120900-
...NORTHEAST COLORADO...

CITY           SKY/WX    TMP DP  RH WIND       PRES   REMARKS
GREELEY ARPT   NOT AVBL
AKRON          CLOUDY    65  63  93 W12       30.17R
BURLINGTON     CLOUDY    66  59  78 SE5       30.08F
WRAY           CLOUDY    69  64  85 W8        30.10R
STERLING       CLOUDY    68  68 100 N8        30.13S
HOLYOKE        CLOUDY    72  68  88 N13       30.09R
FORT MORGAN    CLOUDY    67  63  86 N3        30.18S
$$

COZ086-089-092>099-120900-
...SOUTHEAST COLORADO...

CITY           SKY/WX    TMP DP  RH WIND       PRES   REMARKS
PUEBLO         CLOUDY    70  64  81 N7        30.15F
LA JUNTA       PTCLDY    73  58  59 CALM      30.10F
LAMAR          CLEAR     74  58  57 SW8       30.03F
SPRINGFIELD      N/A     72  55  55 S16       30.14F
$$


USA.gov is the U.S. government's official web portal to all federal, state and local government web resources and services.